Weather History for Nuuk, Greenland

Change the Weather History Date:

Sunday, December 30, 2012

  Actual Average Record
Temperature  
Mean Temperature 12 °F -  
Max Temperature 14 °F 20 °F 50 °F (2008)
Min Temperature 10 °F 14 °F 1 °F (2007)
Degree Days  
Heating Degree Days 53    
Moisture  
Dew Point 3 °F    
Average Humidity 63    
Maximum Humidity 73    
Minimum Humidity 44    
Precipitation  
Precipitation 0.00 in - - ()
Sea Level Pressure  
Sea Level Pressure 29.70 in    
Wind  
Wind Speed 13 mph ()    
Max Wind Speed 17 mph    
Max Gust Speed -    
Visibility 6.2 miles    
Events      
Averages and records for this station are not official NWS values.
T = Trace of Precipitation, MM = Missing Value Source: Averaged Metar Reports

Daily Weather History Graph

Daily Weather History Graph

Search for Another Location

Airport:

Trip Planner

Search our weather history database for the weather conditions in past years. The results will help you decide how hot, cold, wet, or windy it might be!

Date:

Astronomy

Dec. 30, 2012 Rise Set
Actual Time 10:20 AM WGT 2:38 PM WGT
Civil Twilight 9:03 AM WGT 3:56 PM WGT
Nautical Twilight 7:54 AM WGT 5:04 PM WGT
Astronomical Twilight 6:54 AM WGT 6:04 PM WGT
Moon 6:18 PM WGT (12/30) 10:17 AM WGT (12/30)
Length of Visible Light 6h 52m
Length of Day
4h 17m
Waning Gibbous, 96% of the Moon is Illuminated
Dec 30
Waning Gibbous
Jan 5
Last Quarter
Jan 11
New
Jan 18
First Quarter
Jan 27
Full

Hourly Weather History & Observations

Time (WGT) Temp. Windchill Dew Point Humidity Pressure Visibility Wind Dir Wind Speed Gust Speed Precip Events Conditions
12:00 AM 14 °F - 2 °F 44% 29.75 in 31 mi NE 12.7 mph - -  
12:20 AM 12.2 °F -3.7 °F -0.4 °F 57% 29.71 in 6.2 mi ENE 15.0 mph - N/A   Partly Cloudy
12:50 AM 12.2 °F -3.7 °F -0.4 °F 57% 29.71 in 6.2 mi ENE 15.0 mph - N/A   Partly Cloudy
1:20 AM 12.2 °F -3.1 °F -0.4 °F 57% 29.71 in 6.2 mi ENE 13.8 mph - N/A   Unknown
1:50 AM 12.2 °F -3.7 °F 1.4 °F 62% 29.71 in 6.2 mi ENE 15.0 mph - N/A   Partly Cloudy
2:20 AM 12.2 °F -3.7 °F -0.4 °F 57% 29.71 in 6.2 mi ENE 15.0 mph - N/A   Mostly Cloudy
2:50 AM 12.2 °F -3.1 °F 1.4 °F 62% 29.71 in 6.2 mi ENE 13.8 mph - N/A   Partly Cloudy
3:00 AM 14 °F - 2 °F 46% 29.70 in 31 mi NE 15.0 mph - -  
3:20 AM 12.2 °F -3.7 °F 1.4 °F 62% 29.68 in 6.2 mi ENE 15.0 mph - N/A   Scattered Clouds
3:50 AM 12.2 °F -3.7 °F 1.4 °F 62% 29.68 in 6.2 mi ENE 15.0 mph - N/A   Partly Cloudy
4:20 AM 12.2 °F -3.7 °F 1.4 °F 62% 29.68 in 6.2 mi ENE 15.0 mph - N/A   Partly Cloudy
4:50 AM 12.2 °F -4.3 °F 1.4 °F 62% 29.68 in 6.2 mi ENE 16.1 mph - N/A   Partly Cloudy
5:20 AM 12.2 °F -4.8 °F 1.4 °F 62% 29.68 in 6.2 mi ENE 17.3 mph - N/A   Unknown
5:50 AM 12.2 °F -4.3 °F 1.4 °F 62% 29.68 in 6.2 mi ENE 16.1 mph - N/A   Unknown
6:00 AM 14 °F - 3 °F 47% 29.71 in 31 mi NE 17.3 mph - -  
6:20 AM 12.2 °F -3.7 °F 1.4 °F 62% 29.68 in 6.2 mi ENE 15.0 mph - N/A   Partly Cloudy
6:50 AM 12.2 °F -3.1 °F 1.4 °F 62% 29.68 in 6.2 mi ENE 13.8 mph - N/A   Clear
7:50 AM 12.2 °F -3.1 °F 1.4 °F 62% 29.68 in 6.2 mi ENE 13.8 mph - N/A   Clear
8:50 AM 12.2 °F -2.5 °F 1.4 °F 62% 29.68 in 6.2 mi ENE 12.7 mph - N/A   Clear
9:00 AM 15 °F - 8 °F 63% 29.70 in 31 mi NNE 11.5 mph - -  
10:50 AM 12.2 °F -2.5 °F 1.4 °F 62% 29.68 in 6.2 mi ENE 12.7 mph - N/A   Clear
11:50 AM 12.2 °F -1.8 °F 1.4 °F 62% 29.68 in 6.2 mi ENE 11.5 mph - N/A   Clear
12:00 PM 14 °F - 8 °F 68% 29.70 in 31 mi North 16.1 mph - -  
12:50 PM 12.2 °F -2.5 °F 3.2 °F 67% 29.68 in 6.2 mi ENE 12.7 mph - N/A   Clear
1:20 PM 12.2 °F -2.5 °F 3.2 °F 67% 29.68 in 6.2 mi ENE 12.7 mph - N/A   Unknown
1:50 PM 12.2 °F -1.8 °F 1.4 °F 62% 29.68 in 6.2 mi ENE 11.5 mph - N/A   Partly Cloudy
2:20 PM 12.2 °F -1.8 °F 3.2 °F 67% 29.68 in 6.2 mi ENE 11.5 mph - N/A   Partly Cloudy
2:50 PM 12.2 °F -1.0 °F 1.4 °F 62% 29.68 in 6.2 mi NE 10.4 mph - N/A   Partly Cloudy
3:00 PM 13 °F - 7 °F 66% 29.68 in 31 mi North 16.1 mph - -  
3:50 PM 12.2 °F -1.0 °F 3.2 °F 67% 29.68 in 6.2 mi ENE 10.4 mph - N/A   Clear
4:50 PM 12.2 °F -1.8 °F 3.2 °F 67% 29.68 in 6.2 mi NE 11.5 mph - N/A   Clear
5:50 PM 10.4 °F -2.4 °F 3.2 °F 73% 29.71 in 6.2 mi ENE 9.2 mph - N/A   Partly Cloudy
6:00 PM 14 °F - 9 °F 70% 29.72 in 31 mi North 15.0 mph - -  
6:20 PM 12.2 °F -2.5 °F 3.2 °F 67% 29.68 in 6.2 mi ENE 12.7 mph - N/A   Partly Cloudy
6:50 PM 12.2 °F -1.8 °F 3.2 °F 67% 29.68 in 6.2 mi ENE 11.5 mph - N/A   Partly Cloudy
7:20 PM 12.2 °F -1.8 °F 3.2 °F 67% 29.71 in 6.2 mi ENE 11.5 mph - N/A   Partly Cloudy
7:50 PM 10.4 °F -4.1 °F 3.2 °F 73% 29.71 in 6.2 mi ENE 11.5 mph - N/A   Partly Cloudy
8:20 PM 12.2 °F -1.8 °F 3.2 °F 67% 29.71 in 6.2 mi ENE 11.5 mph - N/A   Unknown
8:50 PM 10.4 °F -4.1 °F 3.2 °F 73% 29.71 in 6.2 mi ENE 11.5 mph - N/A   Partly Cloudy
9:00 PM 13 °F - 5 °F 58% 29.70 in 31 mi NE 11.5 mph - -  
9:20 PM 12.2 °F -1.8 °F 3.2 °F 67% 29.71 in 6.2 mi ENE 11.5 mph - N/A   Partly Cloudy
9:50 PM 12.2 °F -2.5 °F 3.2 °F 67% 29.71 in 6.2 mi East 12.7 mph - N/A   Partly Cloudy
10:20 PM 12.2 °F -3.7 °F 3.2 °F 67% 29.71 in 6.2 mi ENE 15.0 mph - N/A   Scattered Clouds
10:50 PM 12.2 °F -3.1 °F 1.4 °F 62% 29.71 in 6.2 mi ENE 13.8 mph - N/A   Partly Cloudy
11:20 PM 12.2 °F -1.8 °F 3.2 °F 67% 29.71 in 6.2 mi ENE 11.5 mph - N/A   Partly Cloudy
11:50 PM 10.4 °F -5.4 °F 1.4 °F 67% 29.71 in 6.2 mi ENE 13.8 mph - N/A   Unknown